Flag for Germany Weather past 2 weeks in Freising, Bavaria, Germany

Now
67 °F

Scattered clouds.


Feels Like: 67 °F
Forecast: 46 / 68 °F
Wind: 3 mph from East

Location: Muenchen Flughafen


UV Index: 3 (Moderate)

Visibility: 19 mi


Pressure: 30.02 "Hg

Humidity: 47%

Dew point: 46 °F

Location of FreisingLocation

Historic Weather in Freising

°F

Freising temperature yesterday

Maximum temperature yesterday: 68 °F (at 4:00 PM)
Minimum temperature yesterday: 39 °F (at 7:00 AM)
Average temperature yesterday: 55 °F

Past Weeks' High & Low Weather Summary

 TemperatureHumidityPressure
High68 °F (Apr 23, 4:00 PM)100% (Apr 12, 3:00 AM)30.44 "Hg (Apr 12, 3:00 AM)
Low26 °F (Apr 17, 6:00 AM)37% (Apr 13, 7:00 PM)29.61 "Hg (Apr 21, 6:00 PM)
Average48 °F76%30.03 "Hg
* Reported Apr 9 1:00 PM — Apr 24 1:00 PM, Freising, Weather by CustomWeather, © 2014

Note: Actual official high and low records may vary slightly from our data, if they occured in-between our weather recording intervals... More about our weather records

Advertising

Historic Weather Conditions — Data for Previous 24 hours

 ConditionsComfort  
Time TempWeatherWind HumidityBarometerVisibility
1:00 PM
Apr 24
66 °FScattered clouds.2 mph58%30.04 "Hg19 mi
12:00 PM63 °FPassing clouds.2 mph62%30.06 "Hg16 mi
11:00 AM61 °FPassing clouds.2 mph68%30.08 "Hg12 mi
10:00 AM56 °FPassing clouds.1 mph73%30.10 "Hg12 mi
9:00 AM53 °FPassing clouds.1 mph80%30.10 "Hg12 mi
8:00 AM46 °FPassing clouds.1 mph100%30.11 "Hg9 mi
7:00 AM40 °FFog.1 mph100%30.13 "Hg7 mi
6:00 AM38 °FFog.1 mph100%30.13 "Hg9 mi
5:00 AM40 °FFog.No wind100%30.12 "Hg9 mi
4:00 AM40 °FFog.1 mph98%30.13 "Hg9 mi
3:00 AM42 °FClear.1 mph97%30.11 "Hg9 mi
2:00 AM45 °FClear.1 mph96%30.11 "Hg9 mi
1:00 AM45 °FClear.1 mph96%30.11 "Hg12 mi
12:00 AM46 °FPassing clouds.1 mph89%30.10 "Hg16 mi
11:00 PM
Apr 23
49 °FPassing clouds.No wind88%30.09 "Hg22 mi
10:00 PM52 °FPassing clouds.No wind79%30.09 "Hg28 mi
9:00 PM57 °FPassing clouds.1 mph72%30.06 "Hg31 mi
8:00 PM64 °FPassing clouds.1 mph52%30.02 "Hg37 mi
7:00 PM67 °FPassing clouds.3 mph49%30.00 "Hg31 mi
6:00 PM67 °FPassing clouds.3 mph44%30.01 "Hg31 mi
5:00 PM68 °FPassing clouds.5 mph43%30.01 "Hg31 mi
4:00 PM68 °FPassing clouds.2 mph46%30.02 "Hg31 mi
3:00 PM67 °FPassing clouds.3 mph44%30.05 "Hg28 mi
2:00 PM66 °FScattered clouds.3 mph54%30.06 "Hg25 mi
Weather by CustomWeather, © 2014

See weather overview